TimeCDT,TemperatureF,Dew PointF,Humidity,Sea Level PressureIn,VisibilityMPH,Wind Direction,Wind SpeedMPH,Gust SpeedMPH,PrecipitationIn,Events,Conditions,WindDirDegrees,DateUTC
12:15 AM,33.1,32.0,96,29.77,4.0,West,16.1,28.8,N/A,Snow,Light Snow,280,2013-03-25 05:15:00
12:35 AM,33.1,32.0,96,29.78,5.0,West,13.8,25.3,N/A,Snow,Light Snow,280,2013-03-25 05:35:00
12:55 AM,33.1,32.0,96,29.78,5.0,WNW,13.8,26.5,N/A,Snow,Light Snow,290,2013-03-25 05:55:00
1:15 AM,33.1,32.0,96,29.78,5.0,West,16.1,26.5,N/A,,Overcast,280,2013-03-25 06:15:00
1:35 AM,33.1,31.8,95,29.79,7.0,West,19.6,27.6,N/A,,Overcast,280,2013-03-25 06:35:00
1:55 AM,33.4,32.0,94,29.80,7.0,West,17.3,27.6,N/A,,Overcast,280,2013-03-25 06:55:00
2:15 AM,33.4,31.1,91,29.80,10.0,West,17.3,31.1,N/A,,Overcast,270,2013-03-25 07:15:00
2:35 AM,33.3,30.4,89,29.79,10.0,West,18.4,25.3,N/A,,Overcast,280,2013-03-25 07:35:00
2:55 AM,33.1,29.8,88,29.80,10.0,West,16.1,25.3,N/A,,Overcast,270,2013-03-25 07:55:00
3:35 AM,33.4,29.3,85,29.80,10.0,WNW,17.3,23.0,N/A,,Overcast,290,2013-03-25 08:35:00
3:55 AM,33.4,28.9,84,29.81,10.0,West,17.3,24.2,N/A,,Overcast,280,2013-03-25 08:55:00
4:15 AM,33.4,28.8,83,29.81,10.0,West,17.3,21.9,N/A,,Overcast,280,2013-03-25 09:15:00
4:35 AM,33.8,28.4,81,29.81,10.0,West,15.0,26.5,N/A,,Overcast,270,2013-03-25 09:35:00
4:55 AM,33.8,28.2,80,29.82,10.0,West,13.8,23.0,N/A,,Overcast,280,2013-03-25 09:55:00
5:15 AM,33.6,27.7,79,29.83,10.0,WNW,17.3,21.9,N/A,,Overcast,290,2013-03-25 10:15:00
5:35 AM,33.6,27.3,78,29.83,10.0,West,16.1,23.0,N/A,,Overcast,280,2013-03-25 10:35:00
5:55 AM,33.6,27.5,78,29.83,10.0,WNW,16.1,20.7,N/A,,Overcast,290,2013-03-25 10:55:00
6:15 AM,33.4,27.3,78,29.84,10.0,WNW,16.1,20.7,N/A,,Overcast,290,2013-03-25 11:15:00
6:55 AM,33.3,27.3,79,29.86,10.0,West,15.0,21.9,N/A,,Overcast,280,2013-03-25 11:55:00
7:15 AM,33.1,27.1,79,29.86,10.0,WNW,11.5,19.6,N/A,,Overcast,290,2013-03-25 12:15:00
7:35 AM,33.1,27.0,78,29.87,10.0,West,15.0,24.2,N/A,,Overcast,280,2013-03-25 12:35:00
7:55 AM,33.1,26.6,77,29.88,10.0,West,15.0,24.2,N/A,,Overcast,270,2013-03-25 12:55:00
8:15 AM,33.1,26.6,77,29.89,10.0,WNW,12.7,27.6,N/A,,Overcast,290,2013-03-25 13:15:00
8:35 AM,33.4,26.4,75,29.90,10.0,WNW,15.0,26.5,N/A,,Overcast,290,2013-03-25 13:35:00
8:55 AM,33.4,26.6,76,29.91,10.0,West,18.4,29.9,N/A,,Overcast,280,2013-03-25 13:55:00
9:15 AM,33.4,26.6,76,29.92,10.0,West,19.6,25.3,N/A,,Overcast,280,2013-03-25 14:15:00
9:35 AM,33.8,26.8,75,29.93,10.0,West,12.7,23.0,N/A,,Overcast,280,2013-03-25 14:35:00
9:55 AM,33.4,26.2,75,29.94,10.0,West,17.3,26.5,N/A,,Overcast,280,2013-03-25 14:55:00
10:15 AM,33.4,26.4,75,29.94,10.0,WNW,17.3,26.5,N/A,,Overcast,290,2013-03-25 15:15:00
10:35 AM,34.7,27.3,74,29.95,10.0,West,17.3,24.2,N/A,,Overcast,280,2013-03-25 15:35:00
10:55 AM,34.0,26.4,74,29.96,10.0,West,16.1,26.5,N/A,,Overcast,280,2013-03-25 15:55:00
11:15 AM,34.3,26.8,74,29.96,10.0,WNW,15.0,29.9,N/A,,Overcast,290,2013-03-25 16:15:00
11:35 AM,34.3,26.4,73,29.97,10.0,West,15.0,27.6,N/A,,Overcast,280,2013-03-25 16:35:00
11:55 AM,34.9,27.5,74,29.98,10.0,WNW,13.8,23.0,N/A,,Overcast,290,2013-03-25 16:55:00
12:15 PM,34.9,27.0,73,29.98,10.0,WNW,11.5,23.0,N/A,,Overcast,290,2013-03-25 17:15:00
12:35 PM,34.7,26.8,73,29.99,10.0,West,13.8,21.9,N/A,,Overcast,280,2013-03-25 17:35:00
12:55 PM,34.7,26.8,73,29.99,10.0,West,11.5,19.6,N/A,,Overcast,280,2013-03-25 17:55:00
1:15 PM,34.7,26.6,72,30.00,10.0,West,13.8,18.4,N/A,,Overcast,270,2013-03-25 18:15:00
1:35 PM,35.8,28.0,73,30.00,10.0,West,13.8,18.4,N/A,Rain,Light Rain,280,2013-03-25 18:35:00
1:55 PM,35.6,27.7,73,30.00,10.0,WNW,16.1,21.9,N/A,,Overcast,290,2013-03-25 18:55:00
2:15 PM,36.1,27.3,70,30.00,10.0,West,12.7,19.6,N/A,,Overcast,270,2013-03-25 19:15:00
2:35 PM,36.0,28.8,75,30.01,7.0,West,12.7,23.0,N/A,Rain,Light Rain,280,2013-03-25 19:35:00
2:55 PM,35.8,29.5,78,30.02,7.0,West,13.8,20.7,N/A,Rain,Rain,280,2013-03-25 19:55:00
3:15 PM,34.5,31.3,88,30.02,1.2,West,9.2,-,N/A,Snow,Light Snow,270,2013-03-25 20:15:00
3:35 PM,34.7,31.3,87,30.03,2.5,West,11.5,19.6,N/A,Rain,Heavy Rain,270,2013-03-25 20:35:00
3:55 PM,35.8,32.0,86,30.03,10.0,West,12.7,18.4,N/A,Rain,Light Rain,270,2013-03-25 20:55:00
4:15 PM,36.3,29.8,77,30.03,10.0,West,16.1,24.2,N/A,Rain,Rain,270,2013-03-25 21:15:00
4:35 PM,36.3,30.0,78,30.04,10.0,WNW,13.8,23.0,N/A,Rain,Light Rain,290,2013-03-25 21:35:00
4:55 PM,36.7,31.3,81,30.04,10.0,West,10.4,20.7,N/A,Rain,Light Rain,270,2013-03-25 21:55:00
5:15 PM,37.4,29.3,73,30.05,10.0,West,11.5,17.3,N/A,,Overcast,270,2013-03-25 22:15:00
5:35 PM,37.4,29.5,73,30.06,10.0,West,9.2,19.6,N/A,,Overcast,280,2013-03-25 22:35:00
5:55 PM,36.1,30.2,79,30.06,10.0,WNW,12.7,20.7,N/A,Rain,Light Rain,290,2013-03-25 22:55:00
6:15 PM,36.5,30.0,77,30.08,10.0,WNW,12.7,17.3,N/A,,Overcast,290,2013-03-25 23:15:00
6:35 PM,36.0,31.5,84,30.09,10.0,West,6.9,-,N/A,Rain,Light Rain,280,2013-03-25 23:35:00
6:55 PM,35.8,30.2,80,30.09,10.0,West,10.4,-,N/A,,Overcast,270,2013-03-25 23:55:00
7:15 PM,34.3,30.9,87,30.10,10.0,West,10.4,-,N/A,,Mostly Cloudy,280,2013-03-26 00:15:00
7:35 PM,34.0,30.9,89,30.11,10.0,WNW,8.1,-,N/A,,Mostly Cloudy,290,2013-03-26 00:35:00
7:55 PM,34.9,30.7,85,30.11,10.0,West,10.4,-,N/A,,Overcast,280,2013-03-26 00:55:00
8:15 PM,34.3,31.5,89,30.12,7.0,West,9.2,-,N/A,Snow,Light Snow,280,2013-03-26 01:15:00
8:35 PM,34.3,31.6,90,30.13,10.0,West,5.8,-,N/A,,Overcast,280,2013-03-26 01:35:00
8:55 PM,34.0,31.8,92,30.13,5.0,West,8.1,-,N/A,Snow,Light Snow,280,2013-03-26 01:55:00
9:15 PM,34.0,32.0,92,30.13,10.0,West,5.8,-,N/A,,Overcast,280,2013-03-26 02:15:00
9:35 PM,34.0,32.0,92,30.14,7.0,WNW,3.5,-,N/A,Snow,Light Snow,300,2013-03-26 02:35:00
9:55 PM,33.8,32.0,93,30.15,3.0,WNW,4.6,-,N/A,Snow,Light Snow,290,2013-03-26 02:55:00
10:15 PM,33.3,32.9,99,30.16,2.0,WNW,8.1,-,N/A,Snow,Light Snow,300,2013-03-26 03:15:00
10:35 PM,32.9,32.0,96,30.16,10.0,WNW,8.1,-,N/A,Snow,Light Snow,300,2013-03-26 03:35:00
10:55 PM,33.3,29.5,86,30.16,10.0,NW,10.4,16.1,N/A,,Overcast,310,2013-03-26 03:55:00
11:15 PM,33.4,28.6,82,30.17,10.0,NW,9.2,-,N/A,Snow,Light Snow,310,2013-03-26 04:15:00
11:55 PM,32.9,29.3,87,30.17,5.0,WNW,6.9,-,N/A,Snow,Light Snow,300,2013-03-26 04:55:00